T7FAB VIDP-VOMM

Flight info

Callsign T7FAB
Flight time 2h 16m
Altitude 38000
Route AKRIB6A AKRIB Q23 RINTO RINTO2F
Aircraft F2TH/M-SDE2E3FGHIJ1J3J4J5RWXYZ/LB1

Departure

Time 2026-04-27 20:01
Airport Indira Gandhi International Airport (VIDP)

Arrival

Time 2026-04-27 22:17
Airport Chennai International Airport (VOMM)
Time Latitude Longitude Altitude Speed Heading
2026-04-27 19:45 28.54914 77.09607 784 ft 0 kts 284°
2026-04-27 19:49 28.54912 77.09615 784 ft 7 kts 284°
2026-04-27 19:49 28.54909 77.09628 784 ft 7 kts 282°
2026-04-27 19:49 28.54909 77.09641 784 ft 7 kts 255°
2026-04-27 19:50 28.54915 77.09652 784 ft 7 kts 218°
2026-04-27 19:50 28.54926 77.09657 784 ft 7 kts 191°
2026-04-27 19:50 28.54919 77.09656 784 ft 0 kts 190°
2026-04-27 19:56 28.54894 77.09650 784 ft 7 kts 192°
2026-04-27 19:56 28.54834 77.09634 784 ft 9 kts 194°
2026-04-27 19:57 28.54765 77.09612 784 ft 11 kts 196°
2026-04-27 19:57 28.54711 77.09607 784 ft 8 kts 151°
2026-04-27 19:57 28.54686 77.09686 784 ft 14 kts 102°
2026-04-27 19:57 28.54659 77.09794 784 ft 12 kts 129°
2026-04-27 19:58 28.54595 77.09802 784 ft 8 kts 197°
2026-04-27 19:58 28.54546 77.09788 784 ft 7 kts 193°
2026-04-27 19:58 28.54481 77.09771 784 ft 10 kts 193°
2026-04-27 19:58 28.54426 77.09755 784 ft 9 kts 203°
2026-04-27 19:59 28.54396 77.09707 784 ft 4 kts 279°
2026-04-27 19:59 28.54397 77.09704 784 ft 0 kts 284°
2026-04-27 19:59 28.54397 77.09703 784 ft 0 kts 284°
2026-04-27 20:00 28.54400 77.09689 784 ft 9 kts 283°
2026-04-27 20:00 28.54458 77.09416 784 ft 70 kts 284°
2026-04-27 20:00 28.54637 77.08622 784 ft 137 kts 283°
2026-04-27 20:00 28.54902 77.07393 1143 ft 175 kts 281°
2026-04-27 20:01 28.55187 77.05946 2058 ft 193 kts 278°
2026-04-27 20:01 28.55071 77.04397 2867 ft 207 kts 260°
2026-04-27 20:01 28.54400 77.02860 3337 ft 228 kts 240°
2026-04-27 20:01 28.53223 77.01607 3686 ft 238 kts 221°
2026-04-27 20:02 28.51697 77.00862 4199 ft 239 kts 204°
2026-04-27 20:02 28.50071 77.00318 4804 ft 245 kts 201°
2026-04-27 20:02 28.48410 76.99789 5323 ft 250 kts 200°
2026-04-27 20:02 28.46734 76.99271 5824 ft 249 kts 200°
2026-04-27 20:03 28.45011 76.98742 6337 ft 264 kts 200°
2026-04-27 20:03 28.43216 76.98199 6841 ft 270 kts 200°
2026-04-27 20:03 28.41353 76.97641 7352 ft 284 kts 199°
2026-04-27 20:03 28.39391 76.97053 7863 ft 301 kts 199°
2026-04-27 20:04 28.37288 76.96508 8368 ft 316 kts 195°
2026-04-27 20:04 28.35094 76.96069 8880 ft 323 kts 194°
2026-04-27 20:04 28.32853 76.95628 9385 ft 328 kts 194°
2026-04-27 20:04 28.30551 76.95198 9846 ft 342 kts 194°
2026-04-27 20:05 28.28145 76.94754 10303 ft 358 kts 194°
2026-04-27 20:05 28.25643 76.94319 10761 ft 366 kts 193°
2026-04-27 20:05 28.23145 76.93872 11207 ft 372 kts 193°
2026-04-27 20:05 28.20532 76.93402 11669 ft 376 kts 193°
2026-04-27 20:06 28.17935 76.92941 12121 ft 380 kts 193°
2026-04-27 20:06 28.15282 76.92486 12607 ft 391 kts 193°
2026-04-27 20:06 28.12554 76.92026 13112 ft 399 kts 192°
2026-04-27 20:06 28.09788 76.91566 13616 ft 403 kts 192°
2026-04-27 20:07 28.07023 76.91111 14113 ft 407 kts 192°
2026-04-27 20:07 28.04212 76.90638 14615 ft 411 kts 193°
2026-04-27 20:07 28.01372 76.90141 15117 ft 414 kts 193°
2026-04-27 20:07 27.98515 76.89627 15649 ft 417 kts 193°
2026-04-27 20:08 27.95632 76.89099 16202 ft 421 kts 193°
2026-04-27 20:08 27.92725 76.88559 16754 ft 426 kts 193°
2026-04-27 20:08 27.89774 76.88009 17309 ft 431 kts 193°
2026-04-27 20:08 27.86801 76.87473 17860 ft 436 kts 192°
2026-04-27 20:09 27.83785 76.86948 18413 ft 441 kts 192°
2026-04-27 20:09 27.80728 76.86413 18967 ft 445 kts 192°
2026-04-27 20:09 27.77651 76.85869 19519 ft 450 kts 192°
2026-04-27 20:09 27.74545 76.85341 20071 ft 454 kts 192°
2026-04-27 20:10 27.71409 76.84821 20625 ft 456 kts 191°
2026-04-27 20:10 27.68220 76.84300 21185 ft 458 kts 191°
2026-04-27 20:10 27.64508 76.83697 21833 ft 459 kts 191°
2026-04-27 20:10 27.61344 76.83182 22384 ft 461 kts 191°
2026-04-27 20:11 27.58106 76.82656 22946 ft 462 kts 191°
2026-04-27 20:11 27.54954 76.82142 23490 ft 464 kts 191°
2026-04-27 20:11 27.51754 76.81618 24041 ft 465 kts 191°
2026-04-27 20:11 27.49591 76.81262 24413 ft 467 kts 191°
2026-04-27 20:12 27.46368 76.80720 24970 ft 467 kts 191°
2026-04-27 20:12 27.43172 76.80088 25524 ft 466 kts 192°
2026-04-27 20:12 27.39987 76.79363 26078 ft 466 kts 193°
2026-04-27 20:12 27.36826 76.78571 26627 ft 466 kts 194°
2026-04-27 20:13 27.33670 76.77756 27144 ft 461 kts 194°
2026-04-27 20:13 27.30556 76.76938 27646 ft 457 kts 195°
2026-04-27 20:13 27.27460 76.76124 28142 ft 457 kts 196°
2026-04-27 20:13 27.24345 76.75297 28643 ft 460 kts 196°
2026-04-27 20:14 27.21221 76.74458 29145 ft 463 kts 197°
2026-04-27 20:14 27.17993 76.73580 29656 ft 466 kts 196°
2026-04-27 20:14 27.14831 76.72717 30122 ft 468 kts 196°
2026-04-27 20:14 27.11675 76.71858 30574 ft 468 kts 196°
2026-04-27 20:15 27.08506 76.70999 31026 ft 468 kts 195°
2026-04-27 20:15 27.05330 76.70140 31478 ft 469 kts 195°
2026-04-27 20:15 27.02200 76.69294 31923 ft 470 kts 195°
2026-04-27 20:15 26.99002 76.68435 32383 ft 472 kts 195°
2026-04-27 20:16 26.95796 76.67576 32874 ft 474 kts 195°
2026-04-27 20:16 26.92646 76.66735 33364 ft 475 kts 195°
2026-04-27 20:16 26.89432 76.65877 33865 ft 475 kts 195°
2026-04-27 20:16 26.86216 76.65021 34365 ft 475 kts 196°
2026-04-27 20:17 26.82998 76.64165 34867 ft 475 kts 196°
2026-04-27 20:17 26.79789 76.63312 35367 ft 474 kts 196°
2026-04-27 20:17 26.76582 76.62461 35867 ft 473 kts 196°
2026-04-27 20:17 26.73385 76.61613 36366 ft 473 kts 196°
2026-04-27 20:18 26.70151 76.60756 36872 ft 472 kts 196°
2026-04-27 20:18 26.66932 76.59902 37264 ft 475 kts 196°
2026-04-27 20:18 26.63690 76.59041 37460 ft 480 kts 196°
2026-04-27 20:18 26.60432 76.58175 37657 ft 482 kts 196°
2026-04-27 20:19 26.57162 76.57307 37898 ft 483 kts 196°
2026-04-27 20:19 26.53889 76.56440 38147 ft 484 kts 196°
2026-04-27 20:19 26.50605 76.55572 38397 ft 484 kts 196°
2026-04-27 20:19 26.47371 76.54719 38644 ft 483 kts 196°
2026-04-27 20:20 26.44090 76.53856 38895 ft 483 kts 196°
2026-04-27 20:20 26.40819 76.52997 39110 ft 483 kts 196°
2026-04-27 20:20 26.37532 76.52135 39247 ft 485 kts 196°
2026-04-27 20:20 26.34252 76.51276 39339 ft 487 kts 196°
2026-04-27 20:21 26.27634 76.49545 39492 ft 486 kts 196°
2026-04-27 20:21 26.21122 76.47851 39625 ft 475 kts 196°
2026-04-27 20:22 26.14696 76.46179 39638 ft 471 kts 196°
2026-04-27 20:22 26.08310 76.44519 39638 ft 469 kts 196°
2026-04-27 20:23 26.01961 76.42871 39638 ft 467 kts 196°
2026-04-27 20:23 25.95638 76.41238 39638 ft 467 kts 195°
2026-04-27 20:24 25.89171 76.40594 39641 ft 473 kts 181°
2026-04-27 20:24 25.82604 76.41468 39642 ft 476 kts 173°
2026-04-27 20:25 25.76356 76.42751 39639 ft 476 kts 171°
2026-04-27 20:25 25.69883 76.44165 39638 ft 476 kts 171°
2026-04-27 20:26 25.63366 76.45617 39639 ft 477 kts 171°
2026-04-27 20:26 25.56851 76.47067 39639 ft 478 kts 171°
2026-04-27 20:27 25.50329 76.48513 39638 ft 479 kts 171°
2026-04-27 20:27 25.43818 76.49948 39639 ft 480 kts 172°
2026-04-27 20:28 25.37262 76.51382 39639 ft 481 kts 172°
2026-04-27 20:28 25.31708 76.52589 39639 ft 481 kts 171°
2026-04-27 20:29 25.24051 76.54247 39639 ft 481 kts 171°
2026-04-27 20:29 25.17490 76.55667 39639 ft 479 kts 171°
2026-04-27 20:30 25.10942 76.57082 39639 ft 478 kts 171°
2026-04-27 20:30 25.04410 76.58490 39639 ft 478 kts 172°
2026-04-27 20:31 24.97880 76.59895 39639 ft 477 kts 172°
2026-04-27 20:31 24.91357 76.61295 39639 ft 477 kts 172°
2026-04-27 20:32 24.84823 76.62696 39639 ft 477 kts 172°
2026-04-27 20:32 24.78307 76.64092 39700 ft 477 kts 172°
2026-04-27 20:33 24.71789 76.65485 39691 ft 477 kts 171°
2026-04-27 20:33 24.65276 76.66882 39693 ft 476 kts 172°
2026-04-27 20:34 24.58771 76.68273 39689 ft 476 kts 172°
2026-04-27 20:34 24.52231 76.69665 39683 ft 476 kts 172°
2026-04-27 20:35 24.45726 76.71051 39685 ft 476 kts 172°
2026-04-27 20:35 24.40283 76.72208 39679 ft 476 kts 172°
2026-04-27 20:36 24.33820 76.73580 39674 ft 476 kts 172°
2026-04-27 20:36 24.27335 76.74957 39675 ft 476 kts 172°
2026-04-27 20:37 24.20812 76.76337 39668 ft 476 kts 172°
2026-04-27 20:37 24.14294 76.77721 39669 ft 478 kts 172°
2026-04-27 20:38 24.07747 76.79107 39669 ft 479 kts 172°
2026-04-27 20:38 24.01186 76.80492 39674 ft 479 kts 172°
2026-04-27 20:39 23.94635 76.81877 39776 ft 480 kts 172°
2026-04-27 20:39 23.88052 76.83267 39780 ft 481 kts 172°
2026-04-27 20:40 23.81472 76.84654 39782 ft 481 kts 172°
2026-04-27 20:40 23.74899 76.86038 39782 ft 481 kts 172°
2026-04-27 20:41 23.68328 76.87426 39784 ft 481 kts 173°
2026-04-27 20:41 23.61711 76.88824 39786 ft 480 kts 173°
2026-04-27 20:42 23.55171 76.90190 39786 ft 480 kts 172°
2026-04-27 20:42 23.48578 76.91567 39786 ft 481 kts 172°
2026-04-27 20:43 23.42004 76.92943 39786 ft 481 kts 172°
2026-04-27 20:43 23.35388 76.94330 39786 ft 481 kts 172°
2026-04-27 20:44 23.28814 76.95709 39786 ft 481 kts 172°
2026-04-27 20:44 23.22229 76.97092 39786 ft 481 kts 173°
2026-04-27 20:45 23.15698 76.98517 39789 ft 480 kts 172°
2026-04-27 20:45 23.09133 77.00097 39790 ft 480 kts 171°
2026-04-27 20:46 23.02622 77.01742 39791 ft 480 kts 171°
2026-04-27 20:46 22.96040 77.03438 39792 ft 479 kts 171°
2026-04-27 20:47 22.89549 77.05122 39793 ft 479 kts 171°
2026-04-27 20:47 22.83059 77.06804 39794 ft 479 kts 171°
2026-04-27 20:48 22.77663 77.08201 39795 ft 479 kts 171°
2026-04-27 20:48 22.70080 77.10161 39797 ft 478 kts 171°
2026-04-27 20:49 22.63603 77.11831 39799 ft 478 kts 172°
2026-04-27 20:49 22.57133 77.13491 39800 ft 478 kts 172°
2026-04-27 20:50 22.50655 77.15147 39801 ft 478 kts 172°
2026-04-27 20:50 22.44228 77.16789 39804 ft 478 kts 172°
2026-04-27 20:51 22.37706 77.18458 39806 ft 477 kts 172°
2026-04-27 20:51 22.31238 77.20120 39805 ft 477 kts 172°
2026-04-27 20:52 22.24767 77.21784 39805 ft 477 kts 172°
2026-04-27 20:52 22.18293 77.23453 39806 ft 477 kts 172°
2026-04-27 20:53 22.11864 77.25115 39805 ft 477 kts 172°
2026-04-27 20:53 22.05356 77.26791 39805 ft 478 kts 173°
2026-04-27 20:54 21.96724 77.29012 39805 ft 478 kts 173°
2026-04-27 20:55 21.89206 77.30939 39804 ft 478 kts 173°
2026-04-27 20:55 21.82703 77.32603 39805 ft 480 kts 173°
2026-04-27 20:56 21.76187 77.34270 39803 ft 481 kts 173°
2026-04-27 20:56 21.69824 77.35909 39799 ft 480 kts 174°
2026-04-27 20:57 21.63150 77.37621 39799 ft 479 kts 174°
2026-04-27 20:57 21.56621 77.39177 39797 ft 481 kts 171°
2026-04-27 20:58 21.50070 77.40709 39797 ft 483 kts 171°
2026-04-27 20:58 21.43492 77.42251 39796 ft 484 kts 171°
2026-04-27 20:59 21.37976 77.43546 39794 ft 484 kts 171°
2026-04-27 20:59 21.31404 77.45116 39768 ft 482 kts 174°
2026-04-27 21:00 21.24861 77.46679 39749 ft 479 kts 175°
2026-04-27 21:00 21.18364 77.48224 39745 ft 477 kts 176°
2026-04-27 21:01 21.11911 77.49761 39744 ft 473 kts 176°
2026-04-27 21:01 21.05485 77.51238 39741 ft 471 kts 177°
2026-04-27 21:02 20.99070 77.52694 39738 ft 470 kts 177°
2026-04-27 21:02 20.92673 77.54152 39738 ft 470 kts 177°
2026-04-27 21:03 20.86268 77.55626 39735 ft 470 kts 176°
2026-04-27 21:03 20.79867 77.57121 39734 ft 470 kts 176°
2026-04-27 21:04 20.73521 77.58612 39735 ft 470 kts 176°
2026-04-27 21:04 20.67087 77.60133 39772 ft 469 kts 177°
2026-04-27 21:04 20.63904 77.60886 39879 ft 469 kts 177°
2026-04-27 21:05 20.60755 77.61630 40000 ft 468 kts 177°
2026-04-27 21:05 20.57532 77.62390 40127 ft 468 kts 177°
2026-04-27 21:05 20.54343 77.63141 40252 ft 468 kts 177°
2026-04-27 21:05 20.51158 77.63890 40378 ft 468 kts 177°
2026-04-27 21:06 20.47968 77.64640 40503 ft 469 kts 177°
2026-04-27 21:06 20.44778 77.65388 40627 ft 469 kts 177°
2026-04-27 21:06 20.40938 77.66288 40721 ft 471 kts 177°
2026-04-27 21:07 20.34507 77.67790 40737 ft 474 kts 177°
2026-04-27 21:07 20.28058 77.69299 40736 ft 474 kts 177°
2026-04-27 21:08 20.21607 77.70809 40735 ft 475 kts 177°
2026-04-27 21:08 20.16181 77.72072 40736 ft 476 kts 176°
2026-04-27 21:09 20.09764 77.73574 40736 ft 473 kts 176°
2026-04-27 21:09 20.03325 77.75089 40736 ft 469 kts 176°
2026-04-27 21:10 19.96985 77.76577 40736 ft 467 kts 176°
2026-04-27 21:10 19.90640 77.78062 40735 ft 466 kts 176°
2026-04-27 21:11 19.84366 77.79525 40734 ft 465 kts 176°
2026-04-27 21:11 19.77979 77.81013 40733 ft 464 kts 176°
2026-04-27 21:12 19.71682 77.82479 40730 ft 463 kts 175°
2026-04-27 21:12 19.65342 77.83883 40730 ft 468 kts 175°
2026-04-27 21:13 19.58997 77.85427 40728 ft 466 kts 176°
2026-04-27 21:13 19.52671 77.86921 40729 ft 465 kts 176°
2026-04-27 21:14 19.46394 77.88378 40727 ft 464 kts 176°
2026-04-27 21:14 19.40054 77.89840 40727 ft 464 kts 176°
2026-04-27 21:15 19.33999 77.91235 40727 ft 464 kts 176°
2026-04-27 21:15 19.27448 77.92752 40727 ft 464 kts 176°
2026-04-27 21:16 19.21117 77.94224 40727 ft 464 kts 176°
2026-04-27 21:16 19.14807 77.95695 40727 ft 464 kts 176°
2026-04-27 21:17 19.08483 77.97171 40727 ft 464 kts 176°
2026-04-27 21:17 19.02165 77.98648 40727 ft 464 kts 176°
2026-04-27 21:18 18.95892 78.00116 40811 ft 464 kts 176°
2026-04-27 21:18 18.89579 78.01592 40826 ft 464 kts 176°
2026-04-27 21:19 18.83229 78.03079 40824 ft 464 kts 176°
2026-04-27 21:19 18.76916 78.04557 40835 ft 464 kts 176°
2026-04-27 21:20 18.67492 78.06764 40854 ft 464 kts 176°
2026-04-27 21:20 18.61216 78.08233 40861 ft 464 kts 176°
2026-04-27 21:21 18.54902 78.09710 40872 ft 465 kts 176°
2026-04-27 21:21 18.48579 78.11189 40870 ft 465 kts 176°
2026-04-27 21:22 18.42255 78.12667 40880 ft 465 kts 176°
2026-04-27 21:22 18.35933 78.14144 40886 ft 465 kts 176°
2026-04-27 21:23 18.29601 78.15623 40886 ft 465 kts 176°
2026-04-27 21:23 18.23650 78.17012 40893 ft 465 kts 176°
2026-04-27 21:24 18.17133 78.18537 40880 ft 466 kts 176°
2026-04-27 21:24 18.14001 78.19547 40851 ft 477 kts 168°
2026-04-27 21:24 18.10973 78.21094 40774 ft 490 kts 159°
2026-04-27 21:25 18.08144 78.23165 40663 ft 501 kts 150°
2026-04-27 21:25 18.05474 78.25542 40552 ft 503 kts 147°
2026-04-27 21:25 18.02855 78.27979 40429 ft 502 kts 146°
2026-04-27 21:25 18.00258 78.30441 40303 ft 503 kts 145°
2026-04-27 21:26 17.97669 78.32918 40144 ft 506 kts 145°
2026-04-27 21:26 17.95056 78.35432 39969 ft 508 kts 144°
2026-04-27 21:26 17.92464 78.37935 39777 ft 508 kts 144°
2026-04-27 21:26 17.89946 78.40371 39678 ft 507 kts 144°
2026-04-27 21:27 17.84719 78.45380 39588 ft 503 kts 138°
2026-04-27 21:27 17.82123 78.47824 39472 ft 500 kts 137°
2026-04-27 21:27 17.79575 78.50253 39349 ft 497 kts 137°
2026-04-27 21:28 17.77018 78.52707 39224 ft 495 kts 137°
2026-04-27 21:28 17.74555 78.55081 39101 ft 493 kts 137°
2026-04-27 21:28 17.72018 78.57530 38989 ft 491 kts 137°
2026-04-27 21:28 17.69461 78.59999 38934 ft 490 kts 137°
2026-04-27 21:29 17.64504 78.64871 38926 ft 490 kts 144°
2026-04-27 21:29 17.59477 78.69742 38927 ft 490 kts 145°
2026-04-27 21:30 17.54440 78.74519 38881 ft 491 kts 145°
2026-04-27 21:30 17.51892 78.76913 38763 ft 490 kts 146°
2026-04-27 21:30 17.49352 78.79297 38732 ft 490 kts 145°
2026-04-27 21:31 17.44337 78.84036 38725 ft 490 kts 145°
2026-04-27 21:31 17.39284 78.88843 38725 ft 491 kts 144°
2026-04-27 21:32 17.34263 78.93633 38724 ft 491 kts 144°
2026-04-27 21:32 17.29239 78.98429 38725 ft 491 kts 144°
2026-04-27 21:33 17.24151 79.03287 38722 ft 492 kts 144°
2026-04-27 21:33 17.19143 79.08065 38719 ft 492 kts 144°
2026-04-27 21:34 17.14098 79.12875 38719 ft 492 kts 144°
2026-04-27 21:34 17.09869 79.16904 38720 ft 492 kts 144°
2026-04-27 21:35 17.04757 79.21771 38720 ft 492 kts 144°
2026-04-27 21:35 16.99677 79.26576 38708 ft 490 kts 146°
2026-04-27 21:36 16.93982 79.30127 38712 ft 474 kts 165°
2026-04-27 21:36 16.87695 79.31966 38740 ft 467 kts 174°
2026-04-27 21:37 16.81378 79.33564 38745 ft 466 kts 175°
2026-04-27 21:37 16.75067 79.35136 38738 ft 466 kts 175°
2026-04-27 21:38 16.71906 79.35919 38629 ft 468 kts 175°
2026-04-27 21:38 16.68731 79.36703 38503 ft 470 kts 175°
2026-04-27 21:38 16.65535 79.37492 38378 ft 473 kts 175°
2026-04-27 21:38 16.62328 79.38285 38254 ft 474 kts 174°
2026-04-27 21:39 16.59115 79.39081 38129 ft 475 kts 174°
2026-04-27 21:39 16.55884 79.39883 38003 ft 476 kts 174°
2026-04-27 21:39 16.52643 79.40689 37860 ft 478 kts 174°
2026-04-27 21:39 16.49397 79.41496 37711 ft 479 kts 174°
2026-04-27 21:40 16.46156 79.42305 37561 ft 480 kts 174°
2026-04-27 21:40 16.42898 79.43117 37411 ft 481 kts 174°
2026-04-27 21:40 16.39599 79.43941 37259 ft 482 kts 174°
2026-04-27 21:40 16.36335 79.44758 37108 ft 482 kts 174°
2026-04-27 21:41 16.33106 79.45565 36960 ft 483 kts 174°
2026-04-27 21:41 16.29803 79.46391 36808 ft 483 kts 174°
2026-04-27 21:41 16.26528 79.47209 36658 ft 484 kts 174°
2026-04-27 21:41 16.23248 79.48030 36507 ft 484 kts 174°
2026-04-27 21:42 16.20113 79.48814 36364 ft 485 kts 174°
2026-04-27 21:42 16.16749 79.49657 36210 ft 485 kts 174°
2026-04-27 21:42 16.13453 79.50449 36052 ft 490 kts 169°
2026-04-27 21:42 16.10111 79.51258 35902 ft 495 kts 169°
2026-04-27 21:43 16.06752 79.52108 35754 ft 499 kts 168°
2026-04-27 21:43 16.03374 79.53040 35605 ft 504 kts 167°
2026-04-27 21:43 16.00001 79.54046 35457 ft 507 kts 166°
2026-04-27 21:43 15.96596 79.55110 35307 ft 510 kts 166°
2026-04-27 21:44 15.93193 79.56189 35147 ft 512 kts 166°
2026-04-27 21:44 15.89774 79.57284 34886 ft 513 kts 166°
2026-04-27 21:44 15.86380 79.58394 34544 ft 506 kts 169°
2026-04-27 21:44 15.83043 79.59498 34210 ft 500 kts 169°
2026-04-27 21:45 15.79719 79.60586 33903 ft 502 kts 169°
2026-04-27 21:45 15.76381 79.61667 33602 ft 503 kts 169°
2026-04-27 21:45 15.73031 79.62744 33301 ft 503 kts 169°
2026-04-27 21:45 15.69679 79.63819 33000 ft 504 kts 169°
2026-04-27 21:46 15.66326 79.64891 32700 ft 505 kts 169°
2026-04-27 21:46 15.62968 79.65962 32399 ft 505 kts 169°
2026-04-27 21:46 15.59599 79.67036 32098 ft 506 kts 169°
2026-04-27 21:46 15.56231 79.68108 31798 ft 507 kts 168°
2026-04-27 21:47 15.52850 79.69184 31497 ft 507 kts 168°
2026-04-27 21:47 15.49477 79.70259 31197 ft 507 kts 168°
2026-04-27 21:47 15.46104 79.71334 30896 ft 506 kts 168°
2026-04-27 21:47 15.42784 79.72392 30600 ft 505 kts 168°
2026-04-27 21:48 15.39426 79.73462 30299 ft 504 kts 168°
2026-04-27 21:48 15.36073 79.74531 29999 ft 503 kts 168°
2026-04-27 21:48 15.32694 79.75607 29695 ft 502 kts 168°
2026-04-27 21:48 15.29377 79.76664 29396 ft 502 kts 168°
2026-04-27 21:49 15.26042 79.77727 29096 ft 501 kts 168°
2026-04-27 21:49 15.22720 79.78786 28797 ft 501 kts 167°
2026-04-27 21:49 15.19409 79.79840 28498 ft 500 kts 167°
2026-04-27 21:49 15.16042 79.80912 28193 ft 499 kts 167°
2026-04-27 21:50 15.12725 79.81960 27893 ft 500 kts 166°
2026-04-27 21:50 15.09392 79.82999 27593 ft 499 kts 165°
2026-04-27 21:50 15.06063 79.84037 27292 ft 499 kts 164°
2026-04-27 21:50 15.02730 79.85086 26990 ft 498 kts 164°
2026-04-27 21:51 14.99417 79.86137 26690 ft 498 kts 164°
2026-04-27 21:51 14.96102 79.87192 26388 ft 497 kts 164°
2026-04-27 21:51 14.92801 79.88248 26087 ft 495 kts 164°
2026-04-27 21:51 14.89577 79.89280 25792 ft 493 kts 163°
2026-04-27 21:52 14.86284 79.90334 25489 ft 491 kts 163°
2026-04-27 21:52 14.83011 79.91381 25187 ft 489 kts 163°
2026-04-27 21:52 14.79726 79.92431 24883 ft 487 kts 163°
2026-04-27 21:52 14.76500 79.93462 24582 ft 485 kts 163°
2026-04-27 21:53 14.73282 79.94490 24281 ft 483 kts 163°
2026-04-27 21:53 14.70069 79.95513 23979 ft 481 kts 163°
2026-04-27 21:53 14.66913 79.96518 23681 ft 479 kts 163°
2026-04-27 21:53 14.63687 79.97544 23376 ft 477 kts 163°
2026-04-27 21:54 14.60535 79.98545 23076 ft 473 kts 163°
2026-04-27 21:54 14.57391 79.99544 22774 ft 470 kts 163°
2026-04-27 21:54 14.54279 80.00532 22473 ft 466 kts 163°
2026-04-27 21:54 14.51274 80.01488 22180 ft 461 kts 162°
2026-04-27 21:55 14.48184 80.02471 21875 ft 457 kts 162°
2026-04-27 21:55 14.45163 80.03433 21565 ft 451 kts 162°
2026-04-27 21:55 14.42164 80.04399 21203 ft 447 kts 162°
2026-04-27 21:55 14.39217 80.05383 20829 ft 443 kts 161°
2026-04-27 21:56 14.36307 80.06405 20454 ft 440 kts 161°
2026-04-27 21:56 14.30584 80.08510 19727 ft 431 kts 160°
2026-04-27 21:56 14.28724 80.09210 19523 ft 429 kts 160°
2026-04-27 21:57 14.25027 80.10616 19122 ft 424 kts 159°
2026-04-27 21:57 14.22247 80.11695 18818 ft 415 kts 160°
2026-04-27 21:57 14.19580 80.12728 18554 ft 405 kts 160°
2026-04-27 21:57 14.16957 80.13740 18301 ft 399 kts 160°
2026-04-27 21:58 14.14364 80.14739 18049 ft 394 kts 160°
2026-04-27 21:58 14.11803 80.15725 17798 ft 393 kts 160°
2026-04-27 21:58 14.09205 80.16720 17545 ft 393 kts 160°
2026-04-27 21:58 14.06686 80.17684 17298 ft 392 kts 160°
2026-04-27 21:59 14.04946 80.18348 17128 ft 391 kts 159°
2026-04-27 21:59 14.01534 80.19651 16793 ft 392 kts 159°
2026-04-27 21:59 13.99840 80.20298 16628 ft 392 kts 159°
2026-04-27 21:59 13.96412 80.21605 16291 ft 394 kts 159°
2026-04-27 22:00 13.94701 80.22253 16125 ft 397 kts 159°
2026-04-27 22:00 13.92130 80.23229 15839 ft 399 kts 159°
2026-04-27 22:00 13.89492 80.24234 15536 ft 399 kts 158°
2026-04-27 22:00 13.86888 80.25227 15235 ft 398 kts 158°
2026-04-27 22:01 13.84306 80.26213 14934 ft 392 kts 158°
2026-04-27 22:01 13.81762 80.27183 14633 ft 387 kts 158°
2026-04-27 22:01 13.79300 80.28122 14376 ft 383 kts 158°
2026-04-27 22:01 13.76718 80.29107 14116 ft 380 kts 158°
2026-04-27 22:02 13.74243 80.30051 13865 ft 378 kts 158°
2026-04-27 22:02 13.71778 80.30991 13614 ft 377 kts 158°
2026-04-27 22:02 13.69344 80.31909 13366 ft 377 kts 159°
2026-04-27 22:02 13.66777 80.32620 13106 ft 378 kts 166°
2026-04-27 22:03 13.64197 80.32960 12859 ft 379 kts 173°
2026-04-27 22:03 13.61547 80.32929 12608 ft 381 kts 182°
2026-04-27 22:03 13.58925 80.32512 12362 ft 381 kts 189°
2026-04-27 22:03 13.56343 80.31898 12123 ft 380 kts 192°
2026-04-27 22:04 13.53786 80.31257 11873 ft 378 kts 192°
2026-04-27 22:04 13.51257 80.30597 11621 ft 369 kts 193°
2026-04-27 22:04 13.48809 80.29943 11369 ft 358 kts 193°
2026-04-27 22:04 13.46416 80.29295 11118 ft 353 kts 193°
2026-04-27 22:05 13.44053 80.28654 10867 ft 349 kts 193°
2026-04-27 22:05 13.41711 80.28019 10616 ft 346 kts 193°
2026-04-27 22:05 13.39397 80.27395 10366 ft 342 kts 193°
2026-04-27 22:05 13.37078 80.26774 10036 ft 335 kts 193°
2026-04-27 22:06 13.34867 80.26185 9664 ft 328 kts 192°
2026-04-27 22:06 13.32679 80.25606 9288 ft 321 kts 192°
2026-04-27 22:06 13.30551 80.25040 8911 ft 309 kts 192°
2026-04-27 22:06 13.28512 80.24487 8535 ft 298 kts 193°
2026-04-27 22:07 13.26531 80.23965 8156 ft 290 kts 191°
2026-04-27 22:07 13.24558 80.23685 7774 ft 282 kts 183°
2026-04-27 22:07 13.22612 80.23723 7400 ft 276 kts 175°
2026-04-27 22:07 13.20789 80.24057 7029 ft 265 kts 167°
2026-04-27 22:08 13.19009 80.24549 6662 ft 257 kts 165°
2026-04-27 22:08 13.17309 80.25048 6277 ft 251 kts 162°
2026-04-27 22:08 13.15824 80.25925 5863 ft 245 kts 144°
2026-04-27 22:08 13.14754 80.27274 5487 ft 245 kts 124°
2026-04-27 22:09 13.14202 80.28926 5115 ft 246 kts 104°
2026-04-27 22:09 13.14240 80.30661 4740 ft 243 kts 84°
2026-04-27 22:09 13.14843 80.32265 4411 ft 240 kts 67°
2026-04-27 22:09 13.15548 80.33808 4092 ft 235 kts 68°
2026-04-27 22:10 13.15915 80.35375 3938 ft 220 kts 85°
2026-04-27 22:10 13.15808 80.36399 3930 ft 218 kts 99°
2026-04-27 22:10 13.14868 80.38209 3932 ft 221 kts 127°
2026-04-27 22:10 13.13657 80.39204 3958 ft 223 kts 144°
2026-04-27 22:11 13.12309 80.39933 3951 ft 214 kts 153°
2026-04-27 22:11 13.10924 80.40385 3888 ft 205 kts 168°
2026-04-27 22:11 13.09542 80.40194 3985 ft 202 kts 191°
2026-04-27 22:11 13.08294 80.39478 4006 ft 210 kts 211°
2026-04-27 22:12 13.07293 80.38353 4009 ft 217 kts 229°
2026-04-27 22:12 13.06588 80.37012 4043 ft 210 kts 244°
2026-04-27 22:12 13.06024 80.35645 4011 ft 205 kts 249°
2026-04-27 22:12 13.05511 80.34313 3996 ft 197 kts 250°
2026-04-27 22:13 13.05035 80.32997 3848 ft 194 kts 249°
2026-04-27 22:13 13.04601 80.31763 3550 ft 181 kts 248°
2026-04-27 22:13 13.04189 80.30628 3043 ft 161 kts 246°
2026-04-27 22:13 13.03799 80.29584 2541 ft 153 kts 244°
2026-04-27 22:14 13.03416 80.28583 2077 ft 147 kts 244°
2026-04-27 22:14 13.03065 80.27660 1972 ft 134 kts 243°
2026-04-27 22:14 13.02732 80.26776 1879 ft 135 kts 242°
2026-04-27 22:14 13.02388 80.25872 1696 ft 137 kts 243°
2026-04-27 22:15 13.02046 80.24961 1496 ft 137 kts 242°
2026-04-27 22:15 13.01708 80.24057 1301 ft 137 kts 242°
2026-04-27 22:15 13.01362 80.23140 1087 ft 138 kts 243°
2026-04-27 22:15 13.01014 80.22215 870 ft 138 kts 244°
2026-04-27 22:16 13.00670 80.21303 714 ft 136 kts 244°
2026-04-27 22:16 13.00327 80.20392 487 ft 136 kts 245°
2026-04-27 22:16 13.00020 80.19534 298 ft 120 kts 245°
2026-04-27 22:16 12.99744 80.18799 155 ft 102 kts 245°
2026-04-27 22:17 12.99501 80.18163 59 ft 85 kts 246°
2026-04-27 22:17 12.99345 80.17770 59 ft 19 kts 249°
2026-04-27 22:17 12.99307 80.17662 59 ft 14 kts 250°
2026-04-27 22:17 12.99279 80.17583 59 ft 11 kts 249°
2026-04-27 22:18 12.99254 80.17519 59 ft 9 kts 249°
2026-04-27 22:18 12.99234 80.17465 59 ft 8 kts 249°
2026-04-27 22:18 12.99201 80.17384 59 ft 17 kts 248°
2026-04-27 22:18 12.99155 80.17269 59 ft 10 kts 247°
2026-04-27 22:19 12.99141 80.17234 59 ft 0 kts 253°
2026-04-27 22:19 12.99134 80.17216 59 ft 4 kts 237°
2026-04-27 22:19 12.99092 80.17203 59 ft 8 kts 167°
2026-04-27 22:20 12.99056 80.17216 59 ft 4 kts 160°
2026-04-27 22:20 12.99023 80.17228 59 ft 5 kts 160°
2026-04-27 22:20 12.98992 80.17241 59 ft 5 kts 148°
2026-04-27 22:20 12.98981 80.17274 59 ft 6 kts 69°
2026-04-27 22:21 12.98999 80.17325 59 ft 9 kts 69°
2026-04-27 22:21 12.99026 80.17394 59 ft 12 kts 69°
2026-04-27 22:21 12.99058 80.17480 59 ft 14 kts 69°
2026-04-27 22:21 12.99096 80.17580 59 ft 16 kts 69°
2026-04-27 22:22 12.99141 80.17699 59 ft 18 kts 68°
2026-04-27 22:22 12.99180 80.17795 59 ft 11 kts 69°
2026-04-27 22:22 12.99209 80.17876 59 ft 12 kts 70°
2026-04-27 22:22 12.99211 80.17884 59 ft 0 kts 70°
2026-04-27 22:23 12.99212 80.17885 59 ft 2 kts 72°
2026-04-27 22:23 12.99206 80.17911 59 ft 1 kts 144°
2026-04-27 22:23 12.99188 80.17918 59 ft 3 kts 160°
2026-04-27 22:23 12.99162 80.17928 59 ft 4 kts 160°
2026-04-27 22:24 12.99155 80.17930 59 ft 0 kts 160°